• In Germany
  • List of Countries
  • For 7 days
  • Water Temperature
  • Satellite Maps
  • Weather Map
  • Weather Widgets
  • user-avatar
    Login

    Hourly Weather Berat

    Today, 25 April, Tuesday

    Time Temperature Precipitation Wind Pressure Humidity
    00:00 +9°C° 0 mm 2 mps 748 mmHg 90%
    01:00 +9°C° 0 mm 2 mps 748 mmHg 90%
    02:00 +9°C° 0 mm 2 mps 748 mmHg 91%
    03:00 +9°C° 0 mm 2 mps 748 mmHg 92%
    04:00 +9°C° 0 mm 2 mps 748 mmHg 92%
    05:00 +10°C° 0 mm 2 mps 748 mmHg 86%
    06:00 +13°C° 0 mm 2 mps 748 mmHg 80%
    07:00 +15°C° 0 mm 2 mps 748 mmHg 74%
    08:00 +17°C° 0 mm 2 mps 748 mmHg 65%
    09:00 +18°C° 0 mm 3 mps 748 mmHg 56%
    10:00 +20°C° 0 mm 3 mps 748 mmHg 47%
    11:00 +20°C° 0 mm 3 mps 748 mmHg 45%
    12:00 +21°C° 0 mm 4 mps 748 mmHg 43%
    13:00 +22°C° 0 mm 4 mps 747 mmHg 41%
    14:00 +21°C° 0 mm 4 mps 747 mmHg 44%
    15:00 +20°C° 0 mm 4 mps 747 mmHg 47%
    16:00 +20°C° 0 mm 4 mps 747 mmHg 50%
    17:00 +18°C° 0 mm 3 mps 747 mmHg 62%
    18:00 +14°C° 0 mm 3 mps 747 mmHg 73%
    19:00 +13°C° 0 mm 2 mps 746 mmHg 85%
    20:00 +12°C° 0 mm 2 mps 747 mmHg 86%
    21:00 +12°C° 0 mm 2 mps 747 mmHg 88%
    22:00 +10°C° 0 mm 2 mps 747 mmHg 89%
    23:00 +10°C° 0 mm 2 mps 747 mmHg 88%

    Tomorrow, 26 April, Wednesday

    Time Temperature Precipitation Wind Pressure Humidity
    00:00 +10°C° 0 mm 2 mps 747 mmHg 88%
    01:00 +9°C° 0 mm 2 mps 747 mmHg 87%
    02:00 +9°C° 0 mm 2 mps 747 mmHg 83%
    03:00 +9°C° 0 mm 2 mps 746 mmHg 79%
    04:00 +8°C° 0 mm 2 mps 746 mmHg 76%
    05:00 +10°C° 0 mm 2 mps 746 mmHg 67%
    06:00 +13°C° 0 mm 2 mps 746 mmHg 59%
    07:00 +15°C° 0 mm 2 mps 746 mmHg 51%
    08:00 +17°C° 0 mm 2 mps 746 mmHg 44%
    09:00 +19°C° 0 mm 3 mps 746 mmHg 37%
    10:00 +21°C° 0 mm 3 mps 747 mmHg 30%
    11:00 +21°C° 0 mm 3 mps 746 mmHg 30%
    12:00 +22°C° 0 mm 3 mps 746 mmHg 30%
    13:00 +23°C° 0 mm 4 mps 746 mmHg 29%
    14:00 +22°C° 0 mm 4 mps 746 mmHg 32%
    15:00 +22°C° 0 mm 4 mps 746 mmHg 35%
    16:00 +22°C° 0 mm 4 mps 746 mmHg 37%
    17:00 +19°C° 0 mm 3 mps 746 mmHg 48%
    18:00 +16°C° 0 mm 2 mps 746 mmHg 59%
    19:00 +13°C° 0 mm 2 mps 746 mmHg 70%
    20:00 +13°C° 0 mm 2 mps 746 mmHg 72%
    21:00 +13°C° 0 mm 2 mps 746 mmHg 73%
    22:00 +12°C° 0 mm 2 mps 746 mmHg 75%
    23:00 +12°C° 0 mm 2 mps 746 mmHg 74%

    Day after tomorrow, 27 April, Thursday

    Time Temperature Precipitation Wind Pressure Humidity
    00:00 +12°C° 0 mm 2 mps 746 mmHg 74%
    01:00 +10°C° 0 mm 2 mps 746 mmHg 74%
    02:00 +10°C° 0 mm 2 mps 746 mmHg 72%
    03:00 +10°C° 0 mm 2 mps 745 mmHg 70%
    04:00 +10°C° 0 mm 2 mps 745 mmHg 68%
    05:00 +13°C° 0 mm 2 mps 745 mmHg 60%
    06:00 +16°C° 0 mm 2 mps 745 mmHg 53%
    07:00 +18°C° 0 mm 2 mps 746 mmHg 46%
    08:00 +20°C° 0 mm 2 mps 746 mmHg 41%
    09:00 +23°C° 0 mm 2 mps 746 mmHg 36%
    10:00 +25°C° 0 mm 2 mps 746 mmHg 30%
    11:00 +25°C° 0 mm 2 mps 746 mmHg 30%
    12:00 +26°C° 0 mm 3 mps 745 mmHg 30%
    13:00 +26°C° 0 mm 3 mps 745 mmHg 30%
    14:00 +26°C° 0 mm 3 mps 745 mmHg 33%
    15:00 +25°C° 0 mm 3 mps 745 mmHg 35%
    16:00 +25°C° 0 mm 3 mps 744 mmHg 37%
    17:00 +21°C° 0 mm 3 mps 744 mmHg 47%
    18:00 +18°C° 0 mm 2 mps 744 mmHg 57%
    19:00 +15°C° 0 mm 2 mps 744 mmHg 67%
    20:00 +15°C° 0 mm 2 mps 745 mmHg 67%
    21:00 +15°C° 0 mm 2 mps 745 mmHg 67%
    22:00 +14°C° 0 mm 2 mps 745 mmHg 67%
    23:00 +14°C° 0 mm 2 mps 745 mmHg 65%

    28 April, Friday

    Time Temperature Precipitation Wind Pressure Humidity
    00:00 +14°C° 0 mm 2 mps 744 mmHg 63%
    01:00 +13°C° 0 mm 3 mps 744 mmHg 62%
    02:00 +13°C° 0 mm 3 mps 744 mmHg 59%
    03:00 +13°C° 0 mm 3 mps 744 mmHg 57%
    04:00 +13°C° 0 mm 3 mps 744 mmHg 55%
    05:00 +14°C° 0 mm 3 mps 744 mmHg 51%
    06:00 +17°C° 0 mm 3 mps 744 mmHg 46%
    07:00 +19°C° 0 mm 3 mps 744 mmHg 42%
    08:00 +21°C° 0 mm 3 mps 744 mmHg 37%
    09:00 +24°C° 0 mm 3 mps 744 mmHg 33%
    10:00 +26°C° 0 mm 3 mps 744 mmHg 28%
    11:00 +26°C° 0 mm 4 mps 744 mmHg 28%
    12:00 +27°C° 0 mm 4 mps 744 mmHg 29%
    13:00 +28°C° 0 mm 5 mps 744 mmHg 29%
    14:00 +27°C° 0 mm 5 mps 743 mmHg 32%
    15:00 +26°C° 0 mm 4 mps 743 mmHg 34%
    16:00 +25°C° 0 mm 4 mps 743 mmHg 37%
    17:00 +22°C° 0 mm 4 mps 743 mmHg 43%
    18:00 +20°C° 0 mm 3 mps 743 mmHg 50%
    19:00 +18°C° 0 mm 3 mps 743 mmHg 56%
    20:00 +17°C° 0 mm 3 mps 743 mmHg 56%
    21:00 +17°C° 0 mm 3 mps 744 mmHg 57%
    22:00 +16°C° 0 mm 3 mps 744 mmHg 57%
    23:00 +16°C° 0 mm 3 mps 743 mmHg 56%

    29 April, Saturday

    Time Temperature Precipitation Wind Pressure Humidity
    00:00 +16°C° 0 mm 3 mps 743 mmHg 55%
    01:00 +14°C° 0 mm 3 mps 743 mmHg 54%
    02:00 +14°C° 0 mm 3 mps 743 mmHg 53%
    03:00 +14°C° 0 mm 3 mps 742 mmHg 52%
    04:00 +14°C° 0 mm 3 mps 742 mmHg 52%
    05:00 +17°C° 0 mm 3 mps 742 mmHg 49%
    06:00 +18°C° 0 mm 3 mps 742 mmHg 46%
    07:00 +20°C° 0 mm 3 mps 742 mmHg 44%
    08:00 +21°C° 0.1 mm 3 mps 742 mmHg 41%
    09:00 +22°C° 0.1 mm 3 mps 742 mmHg 38%
    10:00 +24°C° 0.1 mm 3 mps 743 mmHg 36%
    11:00 +24°C° 0.1 mm 3 mps 742 mmHg 37%
    12:00 +24°C° 0.1 mm 3 mps 742 mmHg 38%
    13:00 +25°C° 0.1 mm 3 mps 742 mmHg 39%
    14:00 +24°C° 0 mm 3 mps 742 mmHg 41%
    15:00 +24°C° 0 mm 3 mps 742 mmHg 43%
    16:00 +22°C° 0 mm 3 mps 742 mmHg 46%
    17:00 +20°C° 0 mm 2 mps 742 mmHg 55%
    18:00 +18°C° 0 mm 2 mps 742 mmHg 65%
    19:00 +16°C° 0 mm 2 mps 742 mmHg 75%
    20:00 +16°C° 0 mm 2 mps 742 mmHg 74%
    21:00 +16°C° 0 mm 1 mps 742 mmHg 73%
    22:00 +16°C° 0 mm 1 mps 742 mmHg 73%
    23:00 +15°C° 0 mm 2 mps 742 mmHg 73%

    30 April, Sunday

    Time Temperature Precipitation Wind Pressure Humidity
    00:00 +15°C° 0 mm 2 mps 742 mmHg 73%
    01:00 +15°C° 0 mm 2 mps 742 mmHg 73%
    02:00 +15°C° 0 mm 2 mps 742 mmHg 73%
    03:00 +15°C° 0 mm 2 mps 742 mmHg 73%
    04:00 +14°C° 0 mm 2 mps 742 mmHg 74%
    05:00 +16°C° 0 mm 2 mps 742 mmHg 71%
    06:00 +17°C° 0 mm 2 mps 742 mmHg 68%
    07:00 +18°C° 0 mm 2 mps 743 mmHg 65%
    08:00 +20°C° 0 mm 2 mps 743 mmHg 58%
    09:00 +23°C° 0 mm 2 mps 743 mmHg 51%
    10:00 +25°C° 0 mm 2 mps 743 mmHg 43%
    11:00 +26°C° 0 mm 3 mps 743 mmHg 42%
    12:00 +27°C° 0 mm 3 mps 742 mmHg 40%
    13:00 +27°C° 0 mm 4 mps 742 mmHg 38%
    14:00 +26°C° 0.4 mm 3 mps 742 mmHg 43%
    15:00 +25°C° 0.4 mm 3 mps 742 mmHg 49%
    16:00 +25°C° 0.4 mm 3 mps 741 mmHg 54%
    17:00 +21°C° 0.2 mm 3 mps 742 mmHg 64%
    18:00 +19°C° 0.2 mm 2 mps 742 mmHg 75%
    19:00 +17°C° 0.2 mm 2 mps 742 mmHg 85%
    20:00 +16°C° 0.2 mm 2 mps 742 mmHg 87%
    21:00 +16°C° 0.2 mm 2 mps 742 mmHg 89%
    22:00 +15°C° 0.2 mm 1 mps 742 mmHg 91%
    23:00 +15°C° 0.2 mm 1 mps 742 mmHg 91%
    Show more